UAL3886 KEWR-KLCQ

Flight info

Callsign UAL3886
Flight time 1h 59m
Altitude 36000
Route ELVAE NECCK WHITE Q409 ENEME
Aircraft A320/M-VGDW/C

Departure

Time 2026-05-04 20:44
Airport Newark Liberty International Airport (KEWR)

Arrival

Time 2026-05-04 22:44
Airport Lake City Gateway Airport (KLCQ)
Time Latitude Longitude Altitude Speed Heading
2026-05-04 20:22 40.68303 -74.18411 22 ft 0 kts
2026-05-04 20:34 40.68292 -74.18412 22 ft 4 kts
2026-05-04 20:34 40.68266 -74.18415 22 ft 4 kts
2026-05-04 20:35 40.68246 -74.18421 22 ft 4 kts 83°
2026-05-04 20:35 40.68247 -74.18448 22 ft 4 kts 95°
2026-05-04 20:35 40.68248 -74.18467 22 ft 0 kts 95°
2026-05-04 20:37 40.68248 -74.18464 22 ft 1 kts 95°
2026-05-04 20:37 40.68247 -74.18446 22 ft 3 kts 95°
2026-05-04 20:38 40.68245 -74.18413 22 ft 5 kts 95°
2026-05-04 20:38 40.68241 -74.18364 24 ft 6 kts 95°
2026-05-04 20:38 40.68238 -74.18302 22 ft 8 kts 95°
2026-05-04 20:38 40.68232 -74.18219 22 ft 12 kts 94°
2026-05-04 20:39 40.68238 -74.18102 22 ft 14 kts 93°
2026-05-04 20:39 40.68225 -74.17972 22 ft 15 kts 108°
2026-05-04 20:39 40.68181 -74.17848 22 ft 14 kts 116°
2026-05-04 20:39 40.68150 -74.17738 22 ft 12 kts 81°
2026-05-04 20:40 40.68218 -74.17673 22 ft 13 kts 26°
2026-05-04 20:40 40.68307 -74.17617 22 ft 16 kts 25°
2026-05-04 20:40 40.68420 -74.17545 23 ft 20 kts 26°
2026-05-04 20:40 40.68555 -74.17459 24 ft 22 kts 26°
2026-05-04 20:41 40.68700 -74.17367 23 ft 24 kts 26°
2026-05-04 20:41 40.68850 -74.17271 22 ft 24 kts 26°
2026-05-04 20:41 40.69003 -74.17174 22 ft 26 kts 26°
2026-05-04 20:41 40.69159 -74.17077 22 ft 25 kts 27°
2026-05-04 20:42 40.69318 -74.16974 22 ft 26 kts 26°
2026-05-04 20:42 40.69476 -74.16873 22 ft 24 kts 26°
2026-05-04 20:42 40.69623 -74.16779 24 ft 24 kts 26°
2026-05-04 20:42 40.69775 -74.16684 21 ft 24 kts 25°
2026-05-04 20:43 40.69911 -74.16600 21 ft 20 kts 26°
2026-05-04 20:43 40.70033 -74.16519 21 ft 13 kts 26°
2026-05-04 20:43 40.70054 -74.16416 20 ft 14 kts 114°
2026-05-04 20:43 40.69963 -74.16404 19 ft 17 kts 206°
2026-05-04 20:44 40.69750 -74.16542 23 ft 64 kts 206°
2026-05-04 20:44 40.69179 -74.16902 24 ft 119 kts 206°
2026-05-04 20:44 40.68296 -74.17463 27 ft 162 kts 205°
2026-05-04 20:44 40.67274 -74.18094 634 ft 157 kts 207°
2026-05-04 20:45 40.66226 -74.18483 1253 ft 160 kts 186°
2026-05-04 20:45 40.65113 -74.18629 1768 ft 166 kts 199°
2026-05-04 20:45 40.63973 -74.19209 2035 ft 187 kts 206°
2026-05-04 20:45 40.62716 -74.19983 2302 ft 212 kts 207°
2026-05-04 20:46 40.61301 -74.20897 2470 ft 239 kts 207°
2026-05-04 20:46 40.59786 -74.21876 2490 ft 243 kts 207°
2026-05-04 20:46 40.58268 -74.22857 2492 ft 244 kts 207°
2026-05-04 20:46 40.56745 -74.23840 2495 ft 243 kts 208°
2026-05-04 20:47 40.55272 -74.24931 2495 ft 244 kts 206°
2026-05-04 20:47 40.53598 -74.25161 2840 ft 253 kts 171°
2026-05-04 20:47 40.51902 -74.24426 3795 ft 256 kts 166°
2026-05-04 20:47 40.50203 -74.23683 4670 ft 260 kts 167°
2026-05-04 20:48 40.48489 -74.22974 5463 ft 264 kts 168°
2026-05-04 20:48 40.46715 -74.22259 6186 ft 270 kts 168°
2026-05-04 20:48 40.44901 -74.21536 6919 ft 275 kts 168°
2026-05-04 20:48 40.43053 -74.20802 7669 ft 279 kts 168°
2026-05-04 20:49 40.41187 -74.20050 8413 ft 282 kts 168°
2026-05-04 20:49 40.39295 -74.19285 9126 ft 286 kts 168°
2026-05-04 20:49 40.37382 -74.18516 9826 ft 290 kts 168°
2026-05-04 20:49 40.35419 -74.17733 10281 ft 304 kts 168°
2026-05-04 20:50 40.33310 -74.17001 10451 ft 323 kts 174°
2026-05-04 20:50 40.31013 -74.16669 10586 ft 340 kts 183°
2026-05-04 20:50 40.28591 -74.16851 10716 ft 356 kts 193°
2026-05-04 20:50 40.26176 -74.17526 11083 ft 364 kts 197°
2026-05-04 20:51 40.23690 -74.18282 11638 ft 368 kts 197°
2026-05-04 20:51 40.21180 -74.19033 12163 ft 373 kts 197°
2026-05-04 20:51 40.18631 -74.19791 12715 ft 377 kts 197°
2026-05-04 20:51 40.16064 -74.20550 13278 ft 381 kts 197°
2026-05-04 20:52 40.13465 -74.21318 13848 ft 384 kts 197°
2026-05-04 20:52 40.10850 -74.22096 14400 ft 388 kts 197°
2026-05-04 20:52 40.08207 -74.22885 14941 ft 391 kts 197°
2026-05-04 20:52 40.05557 -74.23678 15470 ft 395 kts 197°
2026-05-04 20:53 40.02869 -74.24531 16010 ft 396 kts 201°
2026-05-04 20:53 40.00309 -74.25844 16512 ft 395 kts 211°
2026-05-04 20:53 39.97970 -74.27695 17032 ft 393 kts 220°
2026-05-04 20:53 39.95790 -74.29794 17689 ft 391 kts 220°
2026-05-04 20:54 39.93612 -74.31881 18393 ft 390 kts 220°
2026-05-04 20:54 39.91410 -74.33984 18869 ft 395 kts 220°
2026-05-04 20:54 39.89175 -74.36113 19347 ft 400 kts 220°
2026-05-04 20:54 39.86920 -74.38258 19804 ft 404 kts 220°
2026-05-04 20:55 39.84639 -74.40425 20248 ft 408 kts 220°
2026-05-04 20:55 39.82344 -74.42630 20665 ft 410 kts 223°
2026-05-04 20:55 39.80245 -74.45128 21053 ft 410 kts 230°
2026-05-04 20:55 39.78239 -74.47785 21429 ft 413 kts 230°
2026-05-04 20:56 39.76225 -74.50464 21795 ft 416 kts 230°
2026-05-04 20:56 39.74195 -74.53168 22157 ft 419 kts 230°
2026-05-04 20:56 39.72150 -74.55891 22510 ft 422 kts 230°
2026-05-04 20:56 39.70090 -74.58625 22851 ft 425 kts 230°
2026-05-04 20:57 39.68014 -74.61377 23190 ft 428 kts 230°
2026-05-04 20:57 39.65924 -74.64140 23518 ft 430 kts 230°
2026-05-04 20:57 39.63816 -74.66922 23843 ft 433 kts 230°
2026-05-04 20:57 39.61698 -74.69709 24162 ft 435 kts 230°
2026-05-04 20:58 39.59592 -74.72475 24472 ft 437 kts 230°
2026-05-04 20:58 39.57454 -74.75285 24832 ft 438 kts 230°
2026-05-04 20:58 39.55322 -74.78084 25304 ft 436 kts 230°
2026-05-04 20:58 39.53197 -74.80872 25793 ft 433 kts 230°
2026-05-04 20:59 39.51083 -74.83646 26275 ft 431 kts 230°
2026-05-04 20:59 39.48982 -74.86403 26745 ft 430 kts 230°
2026-05-04 20:59 39.46887 -74.89153 27216 ft 428 kts 230°
2026-05-04 20:59 39.44803 -74.91883 27692 ft 425 kts 230°
2026-05-04 21:00 39.42727 -74.94598 28174 ft 424 kts 230°
2026-05-04 21:00 39.40657 -74.97304 28629 ft 422 kts 230°
2026-05-04 21:00 39.38602 -74.99989 29082 ft 420 kts 230°
2026-05-04 21:00 39.36551 -75.02666 29513 ft 418 kts 231°
2026-05-04 21:01 39.34533 -75.05293 29943 ft 416 kts 230°
2026-05-04 21:01 39.32496 -75.07945 30362 ft 415 kts 231°
2026-05-04 21:01 39.30467 -75.10583 30809 ft 413 kts 231°
2026-05-04 21:01 39.28416 -75.13171 31211 ft 413 kts 229°
2026-05-04 21:02 39.26307 -75.15689 31621 ft 413 kts 227°
2026-05-04 21:02 39.24173 -75.18153 32033 ft 412 kts 227°
2026-05-04 21:02 39.22029 -75.20598 32438 ft 410 kts 227°
2026-05-04 21:02 39.19895 -75.23034 32828 ft 409 kts 227°
2026-05-04 21:03 39.17773 -75.25478 33196 ft 408 kts 227°
2026-05-04 21:03 39.15666 -75.27916 33552 ft 407 kts 227°
2026-05-04 21:03 39.13570 -75.30357 33877 ft 406 kts 227°
2026-05-04 21:03 39.11503 -75.32773 34200 ft 405 kts 227°
2026-05-04 21:04 39.09414 -75.35216 34520 ft 403 kts 227°
2026-05-04 21:04 39.07336 -75.37642 34775 ft 404 kts 227°
2026-05-04 21:04 39.05239 -75.40056 34959 ft 407 kts 224°
2026-05-04 21:04 39.02895 -75.42148 35183 ft 414 kts 214°
2026-05-04 21:05 39.00261 -75.43716 35435 ft 420 kts 204°
2026-05-04 21:05 38.97421 -75.44685 35690 ft 426 kts 194°
2026-05-04 21:05 38.94465 -75.45137 35882 ft 428 kts 191°
2026-05-04 21:05 38.91491 -75.45542 35934 ft 432 kts 191°
2026-05-04 21:06 38.85473 -75.46385 35944 ft 444 kts 191°
2026-05-04 21:06 38.79260 -75.47245 35953 ft 454 kts 191°
2026-05-04 21:07 38.72907 -75.48116 35961 ft 461 kts 191°
2026-05-04 21:07 38.66522 -75.48978 35962 ft 461 kts 191°
2026-05-04 21:08 38.60138 -75.49838 35962 ft 461 kts 191°
2026-05-04 21:08 38.53762 -75.50707 35965 ft 460 kts 191°
2026-05-04 21:09 38.47437 -75.51563 35972 ft 460 kts 191°
2026-05-04 21:09 38.41062 -75.52425 35982 ft 460 kts 191°
2026-05-04 21:10 38.35830 -75.53466 35991 ft 453 kts 201°
2026-05-04 21:10 38.31941 -75.55369 35995 ft 444 kts 213°
2026-05-04 21:10 38.29314 -75.57390 35996 ft 438 kts 219°
2026-05-04 21:11 38.24291 -75.61788 35994 ft 439 kts 219°
2026-05-04 21:11 38.20100 -75.65425 35998 ft 439 kts 219°
2026-05-04 21:12 38.15058 -75.69792 36004 ft 439 kts 219°
2026-05-04 21:12 38.10017 -75.74158 36007 ft 438 kts 219°
2026-05-04 21:13 38.04982 -75.78513 36014 ft 438 kts 219°
2026-05-04 21:13 37.99937 -75.82879 36023 ft 438 kts 219°
2026-05-04 21:14 37.94935 -75.87205 36025 ft 438 kts 219°
2026-05-04 21:14 37.89896 -75.91554 36033 ft 438 kts 219°
2026-05-04 21:15 37.84855 -75.95893 36047 ft 438 kts 219°
2026-05-04 21:15 37.79811 -76.00231 36055 ft 438 kts 219°
2026-05-04 21:16 37.74769 -76.04559 36011 ft 437 kts 219°
2026-05-04 21:16 37.69738 -76.08869 36012 ft 437 kts 219°
2026-05-04 21:17 37.64700 -76.13171 36006 ft 437 kts 219°
2026-05-04 21:17 37.59693 -76.17433 36006 ft 437 kts 219°
2026-05-04 21:18 37.54662 -76.21729 36010 ft 436 kts 219°
2026-05-04 21:18 37.49640 -76.26020 36008 ft 436 kts 219°
2026-05-04 21:19 37.44619 -76.30294 36008 ft 435 kts 219°
2026-05-04 21:19 37.39611 -76.34573 36011 ft 434 kts 219°
2026-05-04 21:20 37.34613 -76.38825 36011 ft 433 kts 219°
2026-05-04 21:20 37.29649 -76.43021 36010 ft 432 kts 219°
2026-05-04 21:21 37.24637 -76.47267 36005 ft 432 kts 219°
2026-05-04 21:21 37.19688 -76.51452 36006 ft 431 kts 219°
2026-05-04 21:22 37.14710 -76.55647 36005 ft 431 kts 219°
2026-05-04 21:22 37.09747 -76.59833 36000 ft 430 kts 219°
2026-05-04 21:23 37.04795 -76.64012 35996 ft 429 kts 219°
2026-05-04 21:23 36.99841 -76.68182 35995 ft 428 kts 219°
2026-05-04 21:24 36.94915 -76.72297 35996 ft 428 kts 219°
2026-05-04 21:24 36.89974 -76.76432 36002 ft 427 kts 219°
2026-05-04 21:25 36.85035 -76.80566 36009 ft 427 kts 219°
2026-05-04 21:25 36.80105 -76.84681 36014 ft 426 kts 219°
2026-05-04 21:26 36.75169 -76.88789 36017 ft 426 kts 219°
2026-05-04 21:26 36.70239 -76.92892 36019 ft 426 kts 219°
2026-05-04 21:27 36.65311 -76.96989 36021 ft 425 kts 219°
2026-05-04 21:27 36.60420 -77.01042 36021 ft 425 kts 219°
2026-05-04 21:28 36.55501 -77.05111 36024 ft 424 kts 219°
2026-05-04 21:28 36.50586 -77.09164 36026 ft 424 kts 219°
2026-05-04 21:29 36.45676 -77.13219 36031 ft 423 kts 219°
2026-05-04 21:29 36.40783 -77.17259 36034 ft 423 kts 219°
2026-05-04 21:30 36.35878 -77.21300 36033 ft 422 kts 219°
2026-05-04 21:30 36.31011 -77.25315 36034 ft 422 kts 220°
2026-05-04 21:31 36.24089 -77.31925 36034 ft 417 kts 224°
2026-05-04 21:32 36.19592 -77.36464 36036 ft 417 kts 224°
2026-05-04 21:32 36.15051 -77.40934 36035 ft 417 kts 223°
2026-05-04 21:33 36.10506 -77.45326 36038 ft 417 kts 223°
2026-05-04 21:33 36.05926 -77.49743 36039 ft 417 kts 223°
2026-05-04 21:34 36.01363 -77.54152 36044 ft 417 kts 223°
2026-05-04 21:34 35.96794 -77.58557 36040 ft 416 kts 223°
2026-05-04 21:35 35.92231 -77.62960 36043 ft 416 kts 223°
2026-05-04 21:35 35.87675 -77.67355 36039 ft 415 kts 223°
2026-05-04 21:36 35.83154 -77.71711 36038 ft 415 kts 223°
2026-05-04 21:36 35.78592 -77.76086 36051 ft 416 kts 223°
2026-05-04 21:37 35.74026 -77.80458 36037 ft 415 kts 223°
2026-05-04 21:37 35.69468 -77.84824 36034 ft 415 kts 223°
2026-05-04 21:38 35.64901 -77.89191 36035 ft 415 kts 223°
2026-05-04 21:38 35.60338 -77.93545 36050 ft 415 kts 223°
2026-05-04 21:39 35.55772 -77.97892 36050 ft 415 kts 223°
2026-05-04 21:39 35.51236 -78.02207 36049 ft 415 kts 223°
2026-05-04 21:40 35.46664 -78.06551 36046 ft 415 kts 223°
2026-05-04 21:40 35.42090 -78.10896 36049 ft 416 kts 223°
2026-05-04 21:41 35.37505 -78.15227 36038 ft 416 kts 223°
2026-05-04 21:41 35.32926 -78.19559 36044 ft 416 kts 223°
2026-05-04 21:42 35.28382 -78.23865 36046 ft 416 kts 223°
2026-05-04 21:42 35.23794 -78.28196 36050 ft 416 kts 223°
2026-05-04 21:43 35.19198 -78.32516 36052 ft 417 kts 223°
2026-05-04 21:43 35.14600 -78.36831 36057 ft 417 kts 223°
2026-05-04 21:44 35.10002 -78.41151 36056 ft 416 kts 223°
2026-05-04 21:44 35.05434 -78.45432 36058 ft 417 kts 223°
2026-05-04 21:45 35.00832 -78.49746 36066 ft 416 kts 223°
2026-05-04 21:45 34.96228 -78.54050 36065 ft 416 kts 222°
2026-05-04 21:46 34.91632 -78.58346 36066 ft 417 kts 223°
2026-05-04 21:46 34.87029 -78.62642 36066 ft 417 kts 222°
2026-05-04 21:47 34.82419 -78.66934 36062 ft 417 kts 222°
2026-05-04 21:47 34.77836 -78.71197 36068 ft 417 kts 222°
2026-05-04 21:48 34.73222 -78.75477 36063 ft 417 kts 222°
2026-05-04 21:48 34.68601 -78.79754 36062 ft 417 kts 222°
2026-05-04 21:49 34.63984 -78.84027 36067 ft 417 kts 222°
2026-05-04 21:49 34.59362 -78.88299 36072 ft 417 kts 222°
2026-05-04 21:50 34.54772 -78.92541 36067 ft 417 kts 222°
2026-05-04 21:50 34.50142 -78.96802 36061 ft 418 kts 222°
2026-05-04 21:51 34.45503 -79.01068 36061 ft 418 kts 222°
2026-05-04 21:51 34.40839 -79.05277 36065 ft 419 kts 221°
2026-05-04 21:52 34.36068 -79.09347 36060 ft 420 kts 220°
2026-05-04 21:52 34.31274 -79.13386 36061 ft 420 kts 220°
2026-05-04 21:53 34.26500 -79.17455 36061 ft 420 kts 220°
2026-05-04 21:53 34.21881 -79.21742 36067 ft 418 kts 224°
2026-05-04 21:54 34.17459 -79.26221 36065 ft 417 kts 225°
2026-05-04 21:54 34.13007 -79.30731 36067 ft 418 kts 224°
2026-05-04 21:55 34.08503 -79.35175 36065 ft 419 kts 224°
2026-05-04 21:55 34.03969 -79.39593 36071 ft 419 kts 224°
2026-05-04 21:56 33.99435 -79.44019 36068 ft 419 kts 224°
2026-05-04 21:56 33.94912 -79.48447 36074 ft 419 kts 224°
2026-05-04 21:57 33.90419 -79.52846 36077 ft 419 kts 224°
2026-05-04 21:57 33.85861 -79.57301 36078 ft 419 kts 224°
2026-05-04 21:58 33.81296 -79.61606 36079 ft 420 kts 223°
2026-05-04 21:58 33.76656 -79.65882 36079 ft 420 kts 222°
2026-05-04 21:59 33.72020 -79.70167 36083 ft 420 kts 223°
2026-05-04 21:59 33.67393 -79.74474 36085 ft 420 kts 223°
2026-05-04 22:00 33.62769 -79.78779 36086 ft 420 kts 223°
2026-05-04 22:00 33.58172 -79.83035 36083 ft 420 kts 223°
2026-05-04 22:01 33.53549 -79.87326 36085 ft 420 kts 223°
2026-05-04 22:01 33.48922 -79.91620 36089 ft 420 kts 223°
2026-05-04 22:02 33.44297 -79.95899 36093 ft 420 kts 223°
2026-05-04 22:02 33.39673 -80.00160 36097 ft 420 kts 223°
2026-05-04 22:03 33.35047 -80.04417 36097 ft 419 kts 223°
2026-05-04 22:03 33.30419 -80.08666 36095 ft 419 kts 223°
2026-05-04 22:04 33.25796 -80.12910 36098 ft 419 kts 223°
2026-05-04 22:04 33.21213 -80.17123 36102 ft 418 kts 223°
2026-05-04 22:05 33.16600 -80.21363 36101 ft 418 kts 223°
2026-05-04 22:05 33.11987 -80.25582 36102 ft 417 kts 223°
2026-05-04 22:06 33.07371 -80.29795 36100 ft 417 kts 223°
2026-05-04 22:06 33.02766 -80.33993 36099 ft 417 kts 223°
2026-05-04 22:07 32.98170 -80.38182 36102 ft 416 kts 223°
2026-05-04 22:07 32.93567 -80.42367 36104 ft 416 kts 223°
2026-05-04 22:08 32.88975 -80.46535 36109 ft 415 kts 223°
2026-05-04 22:08 32.84386 -80.50706 36116 ft 415 kts 223°
2026-05-04 22:09 32.79832 -80.54841 36115 ft 414 kts 223°
2026-05-04 22:09 32.75248 -80.58990 36116 ft 414 kts 223°
2026-05-04 22:10 32.70670 -80.63126 36114 ft 413 kts 223°
2026-05-04 22:10 32.66900 -80.66599 36114 ft 412 kts 224°
2026-05-04 22:10 32.64637 -80.68706 35993 ft 415 kts 221°
2026-05-04 22:11 32.62300 -80.70733 35527 ft 413 kts 223°
2026-05-04 22:11 32.57792 -80.74972 35815 ft 413 kts 225°
2026-05-04 22:11 32.55563 -80.77123 36050 ft 412 kts 225°
2026-05-04 22:12 32.53336 -80.79256 36099 ft 411 kts 224°
2026-05-04 22:12 32.48113 -80.84136 36099 ft 412 kts 224°
2026-05-04 22:13 32.44351 -80.87599 36100 ft 412 kts 224°
2026-05-04 22:13 32.39795 -80.91788 36101 ft 412 kts 224°
2026-05-04 22:14 32.35314 -80.95930 36096 ft 412 kts 224°
2026-05-04 22:14 32.30802 -81.00096 36103 ft 412 kts 224°
2026-05-04 22:15 32.26033 -81.03919 36107 ft 418 kts 216°
2026-05-04 22:15 32.20959 -81.07310 36112 ft 419 kts 216°
2026-05-04 22:16 32.15881 -81.10701 36111 ft 419 kts 216°
2026-05-04 22:16 32.10799 -81.14098 36112 ft 419 kts 216°
2026-05-04 22:17 32.05726 -81.17483 36107 ft 419 kts 216°
2026-05-04 22:17 32.00686 -81.20842 36101 ft 419 kts 216°
2026-05-04 22:18 31.95746 -81.24415 36094 ft 411 kts 225°
2026-05-04 22:18 31.91510 -81.28861 35946 ft 407 kts 228°
2026-05-04 22:18 31.89399 -81.31094 35820 ft 407 kts 227°
2026-05-04 22:19 31.87284 -81.33327 35696 ft 408 kts 227°
2026-05-04 22:19 31.85171 -81.35556 35572 ft 408 kts 227°
2026-05-04 22:19 31.83052 -81.37788 35384 ft 409 kts 227°
2026-05-04 22:19 31.80932 -81.40016 35124 ft 410 kts 227°
2026-05-04 22:20 31.78829 -81.42225 34884 ft 410 kts 227°
2026-05-04 22:20 31.76699 -81.44464 34633 ft 412 kts 227°
2026-05-04 22:20 31.74560 -81.46714 34383 ft 413 kts 227°
2026-05-04 22:20 31.72415 -81.48970 34133 ft 414 kts 227°
2026-05-04 22:21 31.70264 -81.51231 33883 ft 415 kts 227°
2026-05-04 22:21 31.68106 -81.53496 33633 ft 417 kts 227°
2026-05-04 22:21 31.65938 -81.55769 33383 ft 418 kts 227°
2026-05-04 22:21 31.63769 -81.58040 33131 ft 419 kts 227°
2026-05-04 22:22 31.61594 -81.60319 32879 ft 420 kts 227°
2026-05-04 22:22 31.59415 -81.62601 32634 ft 421 kts 227°
2026-05-04 22:22 31.57228 -81.64891 32380 ft 422 kts 227°
2026-05-04 22:22 31.55032 -81.67191 32132 ft 423 kts 227°
2026-05-04 22:23 31.52831 -81.69497 31879 ft 425 kts 227°
2026-05-04 22:23 31.50647 -81.71781 31631 ft 426 kts 227°
2026-05-04 22:23 31.48433 -81.74091 31380 ft 427 kts 226°
2026-05-04 22:23 31.46209 -81.76410 31128 ft 429 kts 226°
2026-05-04 22:24 31.43978 -81.78734 30880 ft 430 kts 226°
2026-05-04 22:24 31.41735 -81.81065 30622 ft 431 kts 226°
2026-05-04 22:24 31.39454 -81.83339 30377 ft 432 kts 224°
2026-05-04 22:24 31.37094 -81.85507 30128 ft 432 kts 222°
2026-05-04 22:25 31.34681 -81.87605 29871 ft 432 kts 221°
2026-05-04 22:25 31.32253 -81.89665 29162 ft 431 kts 221°
2026-05-04 22:25 31.29815 -81.91734 28298 ft 431 kts 221°
2026-05-04 22:25 31.27412 -81.93790 27672 ft 426 kts 221°
2026-05-04 22:26 31.25071 -81.95818 27019 ft 422 kts 221°
2026-05-04 22:26 31.22734 -81.97865 26364 ft 418 kts 221°
2026-05-04 22:26 31.20423 -81.99904 25720 ft 415 kts 221°
2026-05-04 22:26 31.18132 -82.01926 25087 ft 411 kts 221°
2026-05-04 22:27 31.15856 -82.03929 24426 ft 409 kts 221°
2026-05-04 22:27 31.13591 -82.05920 23781 ft 406 kts 221°
2026-05-04 22:27 31.11342 -82.07894 23164 ft 403 kts 221°
2026-05-04 22:27 31.09107 -82.09853 22556 ft 400 kts 220°
2026-05-04 22:28 31.06888 -82.11794 21974 ft 397 kts 220°
2026-05-04 22:28 31.04685 -82.13719 21385 ft 395 kts 220°
2026-05-04 22:28 31.02491 -82.15634 20829 ft 393 kts 220°
2026-05-04 22:28 31.00314 -82.17536 20297 ft 390 kts 220°
2026-05-04 22:29 30.98149 -82.19423 19766 ft 388 kts 220°
2026-05-04 22:29 30.95990 -82.21306 19248 ft 386 kts 220°
2026-05-04 22:29 30.93845 -82.23177 18729 ft 384 kts 219°
2026-05-04 22:29 30.91714 -82.25035 18191 ft 381 kts 219°
2026-05-04 22:30 30.89596 -82.26878 17649 ft 379 kts 219°
2026-05-04 22:30 30.87487 -82.28711 17105 ft 377 kts 219°
2026-05-04 22:30 30.85391 -82.30531 16551 ft 375 kts 219°
2026-05-04 22:30 30.83306 -82.32344 15983 ft 374 kts 219°
2026-05-04 22:31 30.81234 -82.34150 15421 ft 371 kts 219°
2026-05-04 22:31 30.79177 -82.35940 14825 ft 368 kts 219°
2026-05-04 22:31 30.77152 -82.37698 14247 ft 366 kts 219°
2026-05-04 22:31 30.75091 -82.39482 13661 ft 364 kts 218°
2026-05-04 22:32 30.73095 -82.41209 13098 ft 361 kts 218°
2026-05-04 22:32 30.71086 -82.42950 12504 ft 359 kts 218°
2026-05-04 22:32 30.69078 -82.44675 11924 ft 357 kts 218°
2026-05-04 22:32 30.67065 -82.46348 11343 ft 356 kts 217°
2026-05-04 22:33 30.65044 -82.47992 10785 ft 353 kts 216°
2026-05-04 22:33 30.63058 -82.49597 10608 ft 340 kts 216°
2026-05-04 22:33 30.61165 -82.51128 10570 ft 324 kts 216°
2026-05-04 22:33 30.59382 -82.52573 10458 ft 302 kts 216°
2026-05-04 22:34 30.57682 -82.53957 10097 ft 296 kts 216°
2026-05-04 22:34 30.56013 -82.55322 9901 ft 291 kts 216°
2026-05-04 22:34 30.54360 -82.56681 9776 ft 291 kts 216°
2026-05-04 22:34 30.52706 -82.58040 9538 ft 293 kts 216°
2026-05-04 22:35 30.51031 -82.59410 9124 ft 294 kts 215°
2026-05-04 22:35 30.49378 -82.60757 8627 ft 298 kts 215°
2026-05-04 22:35 30.47709 -82.62120 8183 ft 289 kts 215°
2026-05-04 22:35 30.46078 -82.63454 7604 ft 286 kts 215°
2026-05-04 22:36 30.44461 -82.64775 7029 ft 282 kts 214°
2026-05-04 22:36 30.42868 -82.66071 6513 ft 277 kts 214°
2026-05-04 22:36 30.41297 -82.67351 5978 ft 274 kts 214°
2026-05-04 22:36 30.39754 -82.68613 5598 ft 265 kts 214°
2026-05-04 22:37 30.38247 -82.69846 4948 ft 267 kts 214°
2026-05-04 22:37 30.36746 -82.71069 4385 ft 268 kts 214°
2026-05-04 22:37 30.35220 -82.72309 4066 ft 266 kts 214°
2026-05-04 22:37 30.33734 -82.73518 3991 ft 255 kts 214°
2026-05-04 22:38 30.32327 -82.74663 4018 ft 240 kts 214°
2026-05-04 22:38 30.30998 -82.75745 4025 ft 228 kts 214°
2026-05-04 22:38 30.29620 -82.76592 3945 ft 221 kts 197°
2026-05-04 22:38 30.28123 -82.76917 3470 ft 219 kts 185°
2026-05-04 22:39 30.26628 -82.77118 3212 ft 209 kts 185°
2026-05-04 22:39 30.25241 -82.77308 3135 ft 193 kts 185°
2026-05-04 22:39 30.23932 -82.77487 2871 ft 187 kts 185°
2026-05-04 22:39 30.22638 -82.77668 2566 ft 186 kts 185°
2026-05-04 22:40 30.21369 -82.77611 2187 ft 184 kts 156°
2026-05-04 22:40 30.20431 -82.76670 2030 ft 182 kts 116°
2026-05-04 22:40 30.20155 -82.75255 2008 ft 184 kts 96°
2026-05-04 22:40 30.20011 -82.73787 1998 ft 183 kts 97°
2026-05-04 22:41 30.19853 -82.72322 2007 ft 184 kts 97°
2026-05-04 22:41 30.19690 -82.70859 2006 ft 182 kts 97°
2026-05-04 22:41 30.19538 -82.69489 1998 ft 164 kts 98°
2026-05-04 22:41 30.19405 -82.68268 1968 ft 148 kts 97°
2026-05-04 22:42 30.19279 -82.67091 1612 ft 146 kts 97°
2026-05-04 22:42 30.19156 -82.65950 1327 ft 141 kts 97°
2026-05-04 22:42 30.19035 -82.64825 1208 ft 141 kts 97°
2026-05-04 22:42 30.18915 -82.63702 1030 ft 141 kts 97°
2026-05-04 22:43 30.18792 -82.62579 841 ft 141 kts 98°
2026-05-04 22:43 30.18671 -82.61484 659 ft 140 kts 97°
2026-05-04 22:43 30.18548 -82.60365 471 ft 141 kts 97°
2026-05-04 22:43 30.18428 -82.59241 283 ft 141 kts 97°
2026-05-04 22:44 30.18313 -82.58152 188 ft 123 kts 97°
2026-05-04 22:44 30.18250 -82.57549 197 ft 13 kts 97°
2026-05-04 22:44 30.18248 -82.57520 194 ft 12 kts 87°
2026-05-04 22:44 30.18321 -82.57477 189 ft 10 kts
2026-05-04 22:45 30.18357 -82.57512 190 ft 7 kts 284°
2026-05-04 22:45 30.18371 -82.57653 191 ft 10 kts 277°
2026-05-04 22:45 30.18381 -82.57739 205 ft 12 kts 276°
2026-05-04 22:46 30.18391 -82.57841 203 ft 14 kts 277°
2026-05-04 22:46 30.18405 -82.57965 191 ft 17 kts 277°
2026-05-04 22:46 30.18421 -82.58109 191 ft 19 kts 278°
2026-05-04 22:46 30.18436 -82.58258 188 ft 12 kts 276°
2026-05-04 22:47 30.18468 -82.58299 199 ft 6 kts 21°
2026-05-04 22:47 30.18521 -82.58245 201 ft 13 kts 43°
2026-05-04 22:47 30.18581 -82.58179 204 ft 12 kts 43°
2026-05-04 22:47 30.18641 -82.58116 204 ft 11 kts 43°
2026-05-04 22:48 30.18680 -82.58109 199 ft 5 kts 334°
2026-05-04 22:48 30.18674 -82.58126 199 ft 2 kts 193°
2026-05-04 22:48 30.18661 -82.58127 198 ft 0 kts 184°